Location: Home
(42.5358°N, 72.7383°W)
Time: 04:03:50
(UTC-04:00)

Vanguard 1 - Pass Details

Date: 30 May 2022
Orbit: 649 x 3832 km, 34.2° (Epoch: 24 June)

Event Time Altitude Azimuth Distance (km) Brightness Sun altitude
Exits shadow 22:07:10 11° 109° (ESE) 4,442 12.9 -15.6°
Drops below altitude 10° 22:08:09 10° 105° (ESE) 4,624 13.0 -15.7°
Sets 22:16:34 0° 81° (E) 6,521 14.0 -16.7°
